When you browse on this site, cookies collect data to enhance your experience and personalize the content and advertising you see.
Visit our Privacy Policy to learn more. By continuing to use the site, you agree to this use of cookies and data.
  • In Österreich
  • Länderverzeichnis
  • Für 7 Tage
  • Wassertemperatur
  • Satellitenkarten
  • Wetterkarte
  • News
  • Widgets
  • user-avatar
    Anmelden

    Stündliche Wetter Laszkar Gah

    Heute, 23 April, Dienstag

    Zeit Temperatur Niederschläge Wind Luftdruck Luftfeuchtigkeit
    00:00 +30°C° 0.1 mm 5 m/S 692 mmHg 27%
    01:00 +30°C° 0.1 mm 5 m/S 692 mmHg 29%
    02:00 +29°C° 0 mm 5 m/S 691 mmHg 32%
    03:00 +28°C° 0 mm 4 m/S 691 mmHg 34%
    04:00 +27°C° 0 mm 3 m/S 691 mmHg 37%
    05:00 +28°C° 0 mm 3 m/S 691 mmHg 36%
    06:00 +29°C° 0 mm 3 m/S 692 mmHg 34%
    07:00 +29°C° 0 mm 3 m/S 692 mmHg 33%
    08:00 +31°C° 0 mm 3 m/S 692 mmHg 29%
    09:00 +32°C° 0 mm 2 m/S 693 mmHg 26%
    10:00 +34°C° 0 mm 2 m/S 693 mmHg 23%
    11:00 +36°C° 0 mm 3 m/S 693 mmHg 20%
    12:00 +37°C° 0 mm 4 m/S 692 mmHg 18%
    13:00 +39°C° 0 mm 5 m/S 692 mmHg 16%
    14:00 +39°C° 0 mm 6 m/S 692 mmHg 15%
    15:00 +40°C° 0 mm 7 m/S 691 mmHg 14%
    16:00 +40°C° 0 mm 8 m/S 691 mmHg 12%
    17:00 +38°C° 0 mm 7 m/S 691 mmHg 15%
    18:00 +36°C° 0 mm 7 m/S 691 mmHg 18%
    19:00 +34°C° 0 mm 6 m/S 691 mmHg 21%
    20:00 +33°C° 0.2 mm 5 m/S 691 mmHg 25%
    21:00 +32°C° 0.2 mm 4 m/S 691 mmHg 29%
    22:00 +30°C° 0.2 mm 3 m/S 691 mmHg 34%
    23:00 +30°C° 0 mm 4 m/S 691 mmHg 32%

    Morgen, 24 April, Mittwoch

    Zeit Temperatur Niederschläge Wind Luftdruck Luftfeuchtigkeit
    00:00 +30°C° 0 mm 4 m/S 691 mmHg 31%
    01:00 +30°C° 0 mm 5 m/S 690 mmHg 30%
    02:00 +30°C° 0 mm 5 m/S 690 mmHg 31%
    03:00 +29°C° 0 mm 5 m/S 690 mmHg 31%
    04:00 +29°C° 0 mm 5 m/S 690 mmHg 32%
    05:00 +28°C° 0 mm 6 m/S 691 mmHg 33%
    06:00 +28°C° 0 mm 6 m/S 691 mmHg 34%
    07:00 +28°C° 0 mm 7 m/S 692 mmHg 34%
    08:00 +29°C° 0 mm 7 m/S 692 mmHg 32%
    09:00 +30°C° 0 mm 7 m/S 693 mmHg 29%
    10:00 +30°C° 0 mm 7 m/S 693 mmHg 27%
    11:00 +32°C° 0 mm 8 m/S 693 mmHg 23%
    12:00 +33°C° 0 mm 8 m/S 693 mmHg 19%
    13:00 +33°C° 0 mm 8 m/S 694 mmHg 15%
    14:00 +33°C° 0 mm 9 m/S 693 mmHg 14%
    15:00 +32°C° 0 mm 9 m/S 693 mmHg 13%
    16:00 +31°C° 0 mm 9 m/S 693 mmHg 12%
    17:00 +29°C° 0 mm 8 m/S 693 mmHg 13%
    18:00 +28°C° 0 mm 7 m/S 693 mmHg 14%
    19:00 +27°C° 0 mm 7 m/S 693 mmHg 15%
    20:00 +26°C° 0 mm 6 m/S 693 mmHg 16%
    21:00 +25°C° 0 mm 5 m/S 694 mmHg 18%
    22:00 +23°C° 0 mm 5 m/S 694 mmHg 19%
    23:00 +23°C° 0 mm 5 m/S 694 mmHg 22%

    übermorgen, 25 April, Donnerstag

    Zeit Temperatur Niederschläge Wind Luftdruck Luftfeuchtigkeit
    00:00 +22°C° 0 mm 5 m/S 693 mmHg 24%
    01:00 +21°C° 0 mm 5 m/S 693 mmHg 27%
    02:00 +20°C° 0 mm 5 m/S 693 mmHg 29%
    03:00 +20°C° 0 mm 4 m/S 693 mmHg 30%
    04:00 +19°C° 0 mm 4 m/S 693 mmHg 32%
    05:00 +20°C° 0 mm 4 m/S 694 mmHg 30%
    06:00 +20°C° 0 mm 4 m/S 694 mmHg 29%
    07:00 +20°C° 0 mm 4 m/S 695 mmHg 27%
    08:00 +22°C° 0 mm 4 m/S 696 mmHg 22%
    09:00 +25°C° 0 mm 5 m/S 696 mmHg 18%
    10:00 +26°C° 0 mm 5 m/S 697 mmHg 13%
    11:00 +27°C° 0 mm 5 m/S 696 mmHg 13%
    12:00 +28°C° 0 mm 5 m/S 696 mmHg 13%
    13:00 +28°C° 0 mm 6 m/S 696 mmHg 12%
    14:00 +28°C° 0 mm 6 m/S 695 mmHg 12%
    15:00 +28°C° 0 mm 6 m/S 695 mmHg 12%
    16:00 +28°C° 0 mm 6 m/S 695 mmHg 12%
    17:00 +27°C° 0 mm 5 m/S 695 mmHg 13%
    18:00 +27°C° 0 mm 5 m/S 695 mmHg 14%
    19:00 +26°C° 0 mm 4 m/S 695 mmHg 14%
    20:00 +25°C° 0 mm 4 m/S 695 mmHg 16%
    21:00 +23°C° 0 mm 4 m/S 695 mmHg 18%
    22:00 +22°C° 0 mm 3 m/S 695 mmHg 19%
    23:00 +22°C° 0 mm 3 m/S 695 mmHg 20%

    26 April, Freitag

    Zeit Temperatur Niederschläge Wind Luftdruck Luftfeuchtigkeit
    00:00 +21°C° 0 mm 2 m/S 695 mmHg 22%
    01:00 +21°C° 0 mm 2 m/S 694 mmHg 23%
    02:00 +20°C° 0 mm 2 m/S 694 mmHg 24%
    03:00 +20°C° 0 mm 2 m/S 694 mmHg 24%
    04:00 +19°C° 0 mm 3 m/S 694 mmHg 25%
    05:00 +20°C° 0 mm 3 m/S 694 mmHg 24%
    06:00 +20°C° 0 mm 3 m/S 695 mmHg 23%
    07:00 +21°C° 0 mm 3 m/S 695 mmHg 22%
    08:00 +22°C° 0 mm 3 m/S 696 mmHg 19%
    09:00 +25°C° 0 mm 3 m/S 696 mmHg 16%
    10:00 +26°C° 0 mm 2 m/S 697 mmHg 13%
    11:00 +27°C° 0 mm 3 m/S 696 mmHg 12%
    12:00 +28°C° 0 mm 3 m/S 696 mmHg 12%
    13:00 +29°C° 0 mm 3 m/S 695 mmHg 11%
    14:00 +29°C° 0 mm 3 m/S 695 mmHg 11%
    15:00 +29°C° 0 mm 3 m/S 695 mmHg 11%
    16:00 +30°C° 0 mm 4 m/S 694 mmHg 11%
    17:00 +29°C° 0 mm 4 m/S 694 mmHg 12%
    18:00 +28°C° 0 mm 3 m/S 694 mmHg 13%
    19:00 +27°C° 0 mm 3 m/S 694 mmHg 14%
    20:00 +27°C° 0 mm 3 m/S 695 mmHg 16%
    21:00 +26°C° 0 mm 3 m/S 695 mmHg 17%
    22:00 +25°C° 0 mm 3 m/S 695 mmHg 18%
    23:00 +24°C° 0 mm 3 m/S 694 mmHg 19%

    27 April, Samstag

    Zeit Temperatur Niederschläge Wind Luftdruck Luftfeuchtigkeit
    00:00 +24°C° 0 mm 2 m/S 694 mmHg 20%
    01:00 +23°C° 0 mm 2 m/S 694 mmHg 21%
    02:00 +23°C° 0 mm 2 m/S 693 mmHg 21%
    03:00 +21°C° 0 mm 2 m/S 693 mmHg 21%
    04:00 +21°C° 0 mm 2 m/S 693 mmHg 22%
    05:00 +22°C° 0 mm 3 m/S 694 mmHg 21%
    06:00 +22°C° 0 mm 3 m/S 694 mmHg 20%
    07:00 +24°C° 0 mm 3 m/S 695 mmHg 20%
    08:00 +25°C° 0 mm 3 m/S 695 mmHg 18%
    09:00 +27°C° 0 mm 4 m/S 696 mmHg 15%
    10:00 +28°C° 0 mm 4 m/S 696 mmHg 13%
    11:00 +29°C° 0 mm 4 m/S 696 mmHg 12%
    12:00 +30°C° 0 mm 4 m/S 695 mmHg 12%
    13:00 +30°C° 0 mm 5 m/S 695 mmHg 11%
    14:00 +30°C° 0 mm 5 m/S 695 mmHg 11%
    15:00 +32°C° 0 mm 5 m/S 694 mmHg 11%
    16:00 +32°C° 0 mm 5 m/S 694 mmHg 11%
    17:00 +30°C° 0 mm 5 m/S 694 mmHg 12%
    18:00 +29°C° 0 mm 5 m/S 694 mmHg 13%
    19:00 +28°C° 0 mm 5 m/S 694 mmHg 15%
    20:00 +27°C° 0 mm 5 m/S 694 mmHg 16%
    21:00 +26°C° 0 mm 5 m/S 695 mmHg 17%
    22:00 +25°C° 0 mm 5 m/S 695 mmHg 18%
    23:00 +25°C° 0 mm 5 m/S 694 mmHg 19%

    28 April, Sonntag

    Zeit Temperatur Niederschläge Wind Luftdruck Luftfeuchtigkeit
    00:00 +23°C° 0 mm 4 m/S 694 mmHg 20%
    01:00 +22°C° 0 mm 4 m/S 694 mmHg 22%
    02:00 +21°C° 0 mm 4 m/S 694 mmHg 23%
    03:00 +21°C° 0 mm 5 m/S 694 mmHg 24%
    04:00 +20°C° 0 mm 5 m/S 694 mmHg 25%
    05:00 +21°C° 0 mm 5 m/S 694 mmHg 23%
    06:00 +21°C° 0 mm 5 m/S 695 mmHg 22%
    07:00 +22°C° 0 mm 5 m/S 695 mmHg 21%
    08:00 +23°C° 0 mm 6 m/S 695 mmHg 18%
    09:00 +26°C° 0 mm 6 m/S 696 mmHg 15%
    10:00 +28°C° 0 mm 6 m/S 696 mmHg 12%
    11:00 +29°C° 0 mm 7 m/S 696 mmHg 11%
    12:00 +29°C° 0 mm 7 m/S 695 mmHg 10%
    13:00 +30°C° 0 mm 7 m/S 695 mmHg 10%
    14:00 +30°C° 0 mm 7 m/S 694 mmHg 9%
    15:00 +30°C° 0 mm 7 m/S 694 mmHg 9%
    16:00 +30°C° 0 mm 7 m/S 693 mmHg 9%
    17:00 +29°C° 0 mm 6 m/S 693 mmHg 10%
    18:00 +28°C° 0 mm 6 m/S 693 mmHg 11%
    19:00 +27°C° 0 mm 5 m/S 693 mmHg 12%
    20:00 +26°C° 0 mm 5 m/S 693 mmHg 13%
    21:00 +25°C° 0 mm 4 m/S 693 mmHg 14%
    22:00 +23°C° 0 mm 4 m/S 694 mmHg 15%
    23:00 +23°C° 0 mm 4 m/S 693 mmHg 17%
    Mehr zeigen